Total_Precipitation_Accumulation
0.06 0.07 0.08 0.07 0.05 0.04 0.06 0.05 0.03 0.03 0.01 0.01 0.01 0.00 0.01 0.00 0.00 0.00 0.00 0.00 0.00 0.00 0.00 0.00 0.00 0.00 0.00 0.00 0.00 0.00 0.00 0.00 0.00 0.00 0.00 0.00 0.00 0.00 0.00 0.00 0.00 0.00 0.00
0.01 0.02 0.04 0.07 0.07 0.10 0.10 0.08 0.05 0.05 0.03 0.02 0.02 0.02 0.01 0.00 0.00 0.00 0.01 0.01 0.01 0.01 0.00 0.00 0.00 0.00 0.00 0.00 0.00 0.00 0.00 0.00 0.00 0.00 0.00 0.00 0.00 0.00 0.00 0.00 0.00 0.00 0.00
0.04 0.02 0.02 0.02 0.02 0.02 0.03 0.05 0.06 0.08 0.09 0.10 0.07 0.04 0.02 0.02 0.01 0.01 0.01 0.02 0.02 0.02 0.02 0.02 0.01 0.01 0.01 0.01 0.00 0.00 0.01 0.00 0.00 0.00 0.00 0.00 0.00 0.00 0.00 0.00 0.00 0.00 0.00
0.14 0.09 0.07 0.06 0.04 0.03 0.02 0.01 0.01 0.01 0.02 0.04 0.06 0.07 0.06 0.06 0.07 0.05 0.04 0.03 0.03 0.03 0.03 0.03 0.03 0.01 0.01 0.01 0.01 0.00 0.00 0.00 0.00 0.00 0.01 0.00 0.00 0.00 0.00 0.00 0.00 0.00 0.00
0.16 0.16 0.13 0.07 0.06 0.07 0.07 0.06 0.05 0.03 0.02 0.01 0.02 0.01 0.02 0.04 0.07 0.09 0.07 0.05 0.03 0.03 0.01 0.01 0.01 0.01 0.01 0.01 0.02 0.00 0.00 0.00 0.01 0.01 0.01 0.01 0.01 0.01 0.01 0.01 0.01 0.01 0.01
0.03 0.06 0.08 0.11 0.13 0.12 0.09 0.08 0.07 0.08 0.05 0.04 0.04 0.03 0.03 0.04 0.17 0.10 0.06 0.03 0.05 0.07 0.07 0.05 0.03 0.05 0.04 0.10 0.07 0.04 0.04 0.02 0.02 0.02 0.02 0.04 0.04 0.04 0.03 0.04 0.07 0.10 0.13
0.00 0.01 0.01 0.03 0.06 0.12 0.14 0.16 0.15 0.12 0.07 0.04 0.03 0.04 0.05 0.07 0.28 0.09 0.07 0.05 0.02 0.03 0.04 0.06 0.08 0.09 0.18 0.11 0.15 0.19 0.16 0.20 0.19 0.18 0.11 0.08 0.08 0.11 0.20 0.23 0.22 0.23 0.20
0.00 0.00 0.00 0.00 0.00 0.00 0.01 0.06 0.12 0.14 0.15 0.13 0.11 0.09 0.09 0.18 0.45 0.19 0.15 0.09 0.05 0.04 0.06 0.09 0.13 0.14 0.26 0.35 0.24 0.17 0.19 0.25 0.39 0.49 0.40 0.39 0.47 0.44 0.36 0.30 0.25 0.19 0.14
0.00 0.00 0.00 0.00 0.00 0.00 0.00 0.00 0.00 0.03 0.06 0.06 0.08 0.08 0.08 0.12 0.46 0.29 0.26 0.14 0.14 0.20 0.24 0.29 0.38 0.35 0.62 0.80 0.61 0.47 0.51 0.47 0.57 0.63 0.50 0.46 0.44 0.41 0.41 0.36 0.29 0.21 0.16
0.00 0.00 0.00 0.00 0.00 0.00 0.00 0.00 0.00 0.00 0.00 0.02 0.04 0.04 0.05 0.06 0.17 0.15 0.13 0.09 0.12 0.12 0.14 0.15 0.35 0.27 0.36 0.42 0.35 0.26 0.28 0.25 0.26 0.30 0.30 0.25 0.20 0.17 0.21 0.09 0.03 0.05 0.11
0.00 0.00 0.00 0.00 0.00 0.00 0.00 0.00 0.00 0.00 0.00 0.00 0.01 0.02 0.02 0.05 0.09 0.17 0.13 0.08 0.08 0.13 0.14 0.15 0.16 0.31 0.27 0.26 0.26 0.18 0.21 0.25 0.25 0.20 0.12 0.10 0.07 0.05 0.06 0.07 0.06 0.10 0.14
0.00 0.00 0.00 0.00 0.00 0.00 0.00 0.00 0.00 0.00 0.00 0.00 0.00 0.01 0.01 0.03 0.08 0.11 0.08 0.08 0.10 0.09 0.10 0.12 0.16 0.40 0.31 0.26 0.22 0.18 0.22 0.20 0.14 0.11 0.08 0.06 0.06 0.07 0.07 0.07 0.08 0.08 0.07
0.00 0.00 0.00 0.00 0.00 0.00 0.00 0.00 0.00 0.00 0.00 0.01 0.01 0.02 0.01 0.01 0.03 0.09 0.05 0.04 0.05 0.03 0.02 0.07 0.19 0.31 0.25 0.18 0.14 0.13 0.13 0.08 0.05 0.06 0.05 0.06 0.04 0.04 0.04 0.06 0.07 0.07 0.07
0.00 0.00 0.00 0.00 0.00 0.00 0.00 0.00 0.00 0.00 0.01 0.01 0.01 0.02 0.01 0.02 0.03 0.04 0.05 0.05 0.05 0.05 0.05 0.11 0.17 0.20 0.19 0.12 0.13 0.11 0.06 0.04 0.05 0.05 0.05 0.06 0.07 0.07 0.07 0.06 0.08 0.10 0.11
0.00 0.00 0.00 0.00 0.00 0.00 0.00 0.00 0.00 0.00 0.02 0.02 0.01 0.01 0.02 0.03 0.04 0.07 0.08 0.06 0.05 0.09 0.13 0.10 0.16 0.13 0.10 0.08 0.08 0.07 0.07 0.10 0.12 0.10 0.10 0.09 0.08 0.08 0.10 0.13 0.16 0.18 0.17
0.00 0.00 0.00 0.00 0.00 0.00 0.00 0.00 0.01 0.01 0.02 0.02 0.02 0.02 0.03 0.06 0.10 0.11 0.09 0.08 0.10 0.14 0.13 0.05 0.04 0.03 0.04 0.04 0.07 0.11 0.13 0.16 0.11 0.09 0.10 0.10 0.12 0.16 0.22 0.27 0.26 0.24 0.21
0.00 0.00 0.00 0.00 0.00 0.00 0.00 0.00 0.00 0.02 0.02 0.01 0.01 0.02 0.03 0.03 0.05 0.05 0.05 0.05 0.08 0.11 0.06 0.02 0.01 0.02 0.03 0.05 0.08 0.11 0.14 0.17 0.17 0.18 0.16 0.17 0.20 0.26 0.39 0.30 0.24 0.24 0.22
0.00 0.00 0.00 0.00 0.00 0.00 0.00 0.01 0.00 0.01 0.02 0.02 0.02 0.02 0.02 0.03 0.05 0.06 0.07 0.12 0.15 0.11 0.03 0.02 0.02 0.04 0.07 0.11 0.14 0.18 0.24 0.26 0.25 0.23 0.24 0.26 0.27 0.29 0.30 0.24 0.21 0.19 0.19
0.00 0.00 0.00 0.01 0.01 0.01 0.01 0.01 0.01 0.02 0.02 0.02 0.02 0.08 0.07 0.07 0.07 0.08 0.09 0.08 0.05 0.03 0.02 0.03 0.05 0.07 0.10 0.13 0.17 0.22 0.24 0.25 0.27 0.27 0.27 0.26 0.25 0.27 0.23 0.18 0.17 0.19 0.21
0.01 0.01 0.01 0.01 0.01 0.01 0.01 0.02 0.02 0.03 0.03 0.03 0.03 0.04 0.06 0.13 0.17 0.19 0.17 0.11 0.06 0.06 0.07 0.10 0.13 0.15 0.19 0.21 0.24 0.27 0.29 0.31 0.27 0.23 0.22 0.21 0.21 0.20 0.19 0.17 0.17 0.20 0.19
0.01 0.01 0.01 0.01 0.01 0.01 0.02 0.02 0.02 0.03 0.04 0.04 0.04 0.06 0.10 0.12 0.12 0.11 0.12 0.12 0.11 0.15 0.18 0.21 0.23 0.25 0.26 0.26 0.26 0.26 0.25 0.23 0.19 0.19 0.19 0.18 0.19 0.21 0.16 0.18 0.18 0.18 0.17
0.03 0.01 0.01 0.01 0.01 0.02 0.02 0.03 0.04 0.05 0.06 0.07 0.10 0.14 0.19 0.18 0.17 0.18 0.20 0.20 0.23 0.25 0.25 0.25 0.26 0.25 0.22 0.20 0.18 0.20 0.23 0.21 0.19 0.18 0.19 0.18 0.19 0.19 0.18 0.18 0.19 0.18 0.15
0.01 0.00 0.00 0.00 0.00 0.01 0.02 0.03 0.04 0.05 0.08 0.10 0.12 0.19 0.22 0.17 0.15 0.16 0.18 0.22 0.25 0.27 0.28 0.28 0.28 0.26 0.22 0.20 0.19 0.20 0.23 0.18 0.15 0.15 0.20 0.20 0.19 0.17 0.16 0.16 0.16 0.16 0.14
0.00 0.00 0.01 0.00 0.01 0.02 0.03 0.02 0.03 0.05 0.07 0.11 0.15 0.16 0.13 0.13 0.16 0.21 0.24 0.27 0.29 0.28 0.26 0.24 0.22 0.19 0.18 0.19 0.20 0.20 0.20 0.18 0.19 0.20 0.18 0.20 0.18 0.16 0.16 0.16 0.14 0.11 0.10
0.00 0.00 0.01 0.01 0.02 0.02 0.03 0.04 0.05 0.08 0.13 0.17 0.15 0.15 0.18 0.23 0.27 0.28 0.29 0.31 0.30 0.27 0.24 0.20 0.19 0.19 0.19 0.18 0.16 0.15 0.14 0.16 0.17 0.17 0.19 0.18 0.15 0.12 0.12 0.12 0.12 0.13 0.13
0.00 0.01 0.01 0.01 0.02 0.03 0.04 0.05 0.07 0.09 0.10 0.12 0.11 0.16 0.22 0.26 0.28 0.29 0.30 0.30 0.30 0.28 0.25 0.23 0.21 0.18 0.17 0.16 0.15 0.15 0.17 0.16 0.14 0.13 0.14 0.15 0.14 0.14 0.14 0.14 0.14 0.15 0.13